EDW33CL LIRF-LIPZ

Flight info

Callsign EDW33CL
Flight time 0h 47m
Altitude 30000
Route SOVAN DCT AMTEL DCT NUKNI DCT BIKTU DCT PELEG DCT SUKOM Q125 NIMUM Z43 OTGIG
Aircraft A320/M-SDE3FGHIRWY/LB1

Departure

Time 2026-05-06 16:39
Airport Rome–Fiumicino Leonardo da Vinci International Airport (LIRF)

Arrival

Time 2026-05-06 17:26
Airport Venice Marco Polo Airport (LIPZ)
Time Latitude Longitude Altitude Speed Heading
2026-05-06 16:12 41.79663 12.25967 14 ft 0 kts 295°
2026-05-06 16:25 41.79663 12.25969 14 ft 1 kts 295°
2026-05-06 16:25 41.79655 12.25989 16 ft 3 kts 304°
2026-05-06 16:25 41.79642 12.26010 15 ft 3 kts 323°
2026-05-06 16:26 41.79626 12.26021 15 ft 3 kts 360°
2026-05-06 16:26 41.79614 12.26018 14 ft 1 kts 25°
2026-05-06 16:26 41.79610 12.26016 14 ft 3 kts 25°
2026-05-06 16:27 41.79605 12.26003 17 ft 2 kts 348°
2026-05-06 16:27 41.79593 12.26001 17 ft 1 kts 15°
2026-05-06 16:27 41.79582 12.25997 16 ft 2 kts 21°
2026-05-06 16:28 41.79572 12.25992 18 ft 0 kts 24°
2026-05-06 16:28 41.79573 12.25992 17 ft 0 kts 24°
2026-05-06 16:31 41.79578 12.25995 17 ft 6 kts 25°
2026-05-06 16:32 41.79677 12.26057 14 ft 19 kts 25°
2026-05-06 16:32 41.79768 12.26053 14 ft 14 kts 302°
2026-05-06 16:32 41.79832 12.25875 16 ft 21 kts 296°
2026-05-06 16:32 41.79916 12.25849 14 ft 16 kts 25°
2026-05-06 16:33 41.80066 12.25943 14 ft 27 kts 24°
2026-05-06 16:33 41.80223 12.26042 14 ft 26 kts 24°
2026-05-06 16:33 41.80328 12.26103 14 ft 9 kts 24°
2026-05-06 16:34 41.80437 12.26166 16 ft 15 kts 16°
2026-05-06 16:34 41.80524 12.26221 16 ft 14 kts 66°
2026-05-06 16:34 41.80574 12.26405 16 ft 32 kts 70°
2026-05-06 16:34 41.80656 12.26700 15 ft 35 kts 69°
2026-05-06 16:35 41.80713 12.26910 15 ft 16 kts 69°
2026-05-06 16:35 41.80756 12.27065 14 ft 20 kts 70°
2026-05-06 16:35 41.80836 12.27127 13 ft 11 kts 341°
2026-05-06 16:35 41.80891 12.27103 13 ft 0 kts 340°
2026-05-06 16:36 41.80923 12.27088 15 ft 20 kts 340°
2026-05-06 16:36 41.80977 12.27001 16 ft 12 kts 257°
2026-05-06 16:36 41.80973 12.26984 15 ft 0 kts 251°
2026-05-06 16:38 41.80921 12.26799 13 ft 70 kts 249°
2026-05-06 16:38 41.80618 12.25727 24 ft 168 kts 249°
2026-05-06 16:39 41.80219 12.24128 786 ft 193 kts 250°
2026-05-06 16:39 41.79784 12.22306 1655 ft 211 kts 246°
2026-05-06 16:39 41.79348 12.20454 2947 ft 210 kts 257°
2026-05-06 16:39 41.79538 12.18503 3579 ft 219 kts 291°
2026-05-06 16:40 41.80428 12.16836 3852 ft 220 kts 305°
2026-05-06 16:40 41.81390 12.15231 3967 ft 221 kts 305°
2026-05-06 16:40 41.82367 12.13602 4269 ft 228 kts 306°
2026-05-06 16:40 41.83348 12.11959 5577 ft 224 kts 306°
2026-05-06 16:41 41.84522 12.10560 6736 ft 229 kts 324°
2026-05-06 16:41 41.86052 12.09650 7505 ft 256 kts 342°
2026-05-06 16:41 41.87831 12.09015 8410 ft 269 kts 342°
2026-05-06 16:41 41.89656 12.08361 9532 ft 274 kts 342°
2026-05-06 16:42 41.91532 12.07679 10454 ft 289 kts 342°
2026-05-06 16:42 41.93552 12.06933 11097 ft 314 kts 342°
2026-05-06 16:42 41.95754 12.06173 11779 ft 337 kts 348°
2026-05-06 16:42 41.98129 12.05880 12759 ft 347 kts 353°
2026-05-06 16:43 42.00563 12.05644 13843 ft 354 kts 353°
2026-05-06 16:43 42.03040 12.05402 14794 ft 360 kts 353°
2026-05-06 16:43 42.05565 12.05156 15738 ft 367 kts 353°
2026-05-06 16:43 42.08156 12.04903 16663 ft 373 kts 353°
2026-05-06 16:44 42.10731 12.04654 17552 ft 379 kts 353°
2026-05-06 16:44 42.13423 12.04391 18452 ft 386 kts 353°
2026-05-06 16:44 42.16116 12.04126 19263 ft 392 kts 352°
2026-05-06 16:44 42.18852 12.03790 20022 ft 396 kts 347°
2026-05-06 16:45 42.21586 12.03182 20837 ft 400 kts 346°
2026-05-06 16:45 42.24348 12.02560 21668 ft 404 kts 345°
2026-05-06 16:45 42.27134 12.01930 22475 ft 408 kts 345°
2026-05-06 16:45 42.29951 12.01291 23274 ft 412 kts 345°
2026-05-06 16:46 42.32796 12.00646 23977 ft 416 kts 344°
2026-05-06 16:46 42.35662 12.00001 24622 ft 420 kts 344°
2026-05-06 16:46 42.38564 11.99348 25245 ft 424 kts 344°
2026-05-06 16:46 42.41489 11.98689 25909 ft 428 kts 343°
2026-05-06 16:47 42.44438 11.98022 26525 ft 432 kts 343°
2026-05-06 16:47 42.47419 11.97347 27115 ft 436 kts 343°
2026-05-06 16:47 42.50426 11.96668 27700 ft 441 kts 343°
2026-05-06 16:47 42.53469 11.95981 28268 ft 445 kts 343°
2026-05-06 16:48 42.56534 11.95286 28821 ft 449 kts 343°
2026-05-06 16:48 42.59636 11.94582 29370 ft 454 kts 343°
2026-05-06 16:48 42.62768 11.93870 29852 ft 459 kts 343°
2026-05-06 16:48 42.65921 11.93155 29966 ft 456 kts 343°
2026-05-06 16:49 42.68970 11.92478 29974 ft 437 kts 343°
2026-05-06 16:49 42.74858 11.91167 29961 ft 424 kts 343°
2026-05-06 16:50 42.80667 11.89826 29961 ft 422 kts 342°
2026-05-06 16:50 42.86084 11.87276 29952 ft 405 kts 323°
2026-05-06 16:51 42.91034 11.83637 29953 ft 404 kts 323°
2026-05-06 16:51 42.95989 11.80008 29946 ft 404 kts 323°
2026-05-06 16:52 43.00944 11.76389 29935 ft 404 kts 323°
2026-05-06 16:52 43.04689 11.73645 29956 ft 403 kts 322°
2026-05-06 16:53 43.09629 11.70017 29948 ft 403 kts 322°
2026-05-06 16:53 43.14560 11.66384 29953 ft 403 kts 322°
2026-05-06 16:54 43.19511 11.62753 29914 ft 407 kts 326°
2026-05-06 16:54 43.22188 11.61357 29914 ft 418 kts 336°
2026-05-06 16:54 43.25075 11.60592 29933 ft 428 kts 347°
2026-05-06 16:55 43.31039 11.60068 29930 ft 429 kts 349°
2026-05-06 16:55 43.36985 11.59553 29929 ft 429 kts 349°
2026-05-06 16:56 43.42942 11.59028 29924 ft 429 kts 349°
2026-05-06 16:56 43.48887 11.58501 29942 ft 427 kts 349°
2026-05-06 16:57 43.54816 11.57971 29943 ft 426 kts 349°
2026-05-06 16:57 43.60730 11.57438 29940 ft 426 kts 349°
2026-05-06 16:58 43.66636 11.56909 29947 ft 425 kts 349°
2026-05-06 16:58 43.72525 11.56394 29939 ft 423 kts 349°
2026-05-06 16:59 43.78402 11.55877 29935 ft 423 kts 349°
2026-05-06 16:59 43.84269 11.55343 29939 ft 422 kts 349°
2026-05-06 17:00 43.90128 11.54819 29921 ft 422 kts 349°
2026-05-06 17:00 43.95992 11.54360 29902 ft 425 kts 354°
2026-05-06 17:00 43.98962 11.54748 29904 ft 433 kts
2026-05-06 17:01 44.01876 11.55871 29904 ft 438 kts 17°
2026-05-06 17:01 44.04641 11.57725 29908 ft 448 kts 28°
2026-05-06 17:01 44.07313 11.60053 29644 ft 456 kts 30°
2026-05-06 17:01 44.10032 11.62427 28225 ft 469 kts 30°
2026-05-06 17:02 44.12795 11.64828 27438 ft 461 kts 30°
2026-05-06 17:02 44.15441 11.67130 26991 ft 437 kts 30°
2026-05-06 17:02 44.17965 11.69321 26410 ft 418 kts 27°
2026-05-06 17:02 44.20521 11.71038 25858 ft 399 kts 16°
2026-05-06 17:03 44.23125 11.72091 25328 ft 383 kts
2026-05-06 17:03 44.25745 11.72532 24853 ft 376 kts 356°
2026-05-06 17:03 44.28325 11.72400 24384 ft 366 kts 347°
2026-05-06 17:03 44.30825 11.71901 23899 ft 364 kts 345°
2026-05-06 17:04 44.33334 11.71393 23391 ft 363 kts 346°
2026-05-06 17:04 44.35829 11.70891 22846 ft 361 kts 346°
2026-05-06 17:04 44.38307 11.70396 22353 ft 358 kts 346°
2026-05-06 17:04 44.40762 11.69906 21859 ft 355 kts 346°
2026-05-06 17:05 44.43204 11.69420 21378 ft 354 kts 346°
2026-05-06 17:05 44.45634 11.68935 20904 ft 352 kts 346°
2026-05-06 17:05 44.48056 11.68451 20414 ft 351 kts 346°
2026-05-06 17:05 44.50463 11.67967 19940 ft 350 kts 347°
2026-05-06 17:06 44.52906 11.67794 19463 ft 355 kts 358°
2026-05-06 17:06 44.55365 11.68305 18977 ft 360 kts 11°
2026-05-06 17:06 44.57730 11.69504 18496 ft 364 kts 23°
2026-05-06 17:06 44.59903 11.71334 17997 ft 366 kts 32°
2026-05-06 17:07 44.62011 11.73338 17480 ft 366 kts 32°
2026-05-06 17:07 44.64117 11.75337 16986 ft 364 kts 32°
2026-05-06 17:07 44.66211 11.77320 16522 ft 363 kts 32°
2026-05-06 17:07 44.68303 11.79297 16050 ft 362 kts 32°
2026-05-06 17:08 44.70387 11.81267 15579 ft 360 kts 33°
2026-05-06 17:08 44.72461 11.83232 15108 ft 359 kts 33°
2026-05-06 17:08 44.73857 11.84557 14799 ft 359 kts 33°
2026-05-06 17:08 44.75924 11.86520 14333 ft 358 kts 33°
2026-05-06 17:09 44.77988 11.88477 13849 ft 358 kts 33°
2026-05-06 17:09 44.80052 11.90440 13293 ft 359 kts 33°
2026-05-06 17:09 44.82125 11.92411 12750 ft 358 kts 33°
2026-05-06 17:09 44.84187 11.94372 12224 ft 356 kts 33°
2026-05-06 17:10 44.86237 11.96326 11681 ft 355 kts 33°
2026-05-06 17:10 44.88319 11.98177 11133 ft 353 kts 24°
2026-05-06 17:10 44.90662 11.98959 10581 ft 345 kts 357°
2026-05-06 17:10 44.92959 11.98321 10065 ft 332 kts 331°
2026-05-06 17:11 44.94804 11.96511 9498 ft 319 kts 307°
2026-05-06 17:11 44.96094 11.94076 9295 ft 302 kts 300°
2026-05-06 17:11 44.97292 11.91735 9162 ft 287 kts 301°
2026-05-06 17:11 44.98446 11.89514 9033 ft 274 kts 301°
2026-05-06 17:12 44.99555 11.87394 8890 ft 262 kts 301°
2026-05-06 17:12 45.00707 11.85462 8701 ft 254 kts 307°
2026-05-06 17:12 45.01873 11.83624 8453 ft 248 kts 307°
2026-05-06 17:12 45.03003 11.81838 8224 ft 241 kts 306°
2026-05-06 17:13 45.04231 11.80269 7998 ft 240 kts 327°
2026-05-06 17:13 45.05854 11.79738 7772 ft 246 kts
2026-05-06 17:13 45.07453 11.80553 7537 ft 248 kts 36°
2026-05-06 17:13 45.08740 11.82123 7387 ft 241 kts 41°
2026-05-06 17:14 45.09981 11.83695 7184 ft 238 kts 41°
2026-05-06 17:14 45.11204 11.85244 6970 ft 235 kts 41°
2026-05-06 17:14 45.12425 11.86782 6758 ft 233 kts 41°
2026-05-06 17:14 45.13630 11.88300 6560 ft 231 kts 41°
2026-05-06 17:15 45.14825 11.89808 6360 ft 229 kts 41°
2026-05-06 17:15 45.16010 11.91302 6158 ft 227 kts 41°
2026-05-06 17:15 45.17187 11.92780 5950 ft 225 kts 41°
2026-05-06 17:15 45.18350 11.94241 5753 ft 223 kts 41°
2026-05-06 17:16 45.19504 11.95691 5570 ft 220 kts 41°
2026-05-06 17:16 45.20646 11.97129 5372 ft 218 kts 41°
2026-05-06 17:16 45.21780 11.98544 5192 ft 216 kts 41°
2026-05-06 17:16 45.22898 11.99944 5001 ft 214 kts 41°
2026-05-06 17:17 45.23981 12.01312 4841 ft 202 kts 42°
2026-05-06 17:17 45.24967 12.02563 4670 ft 179 kts 42°
2026-05-06 17:17 45.25836 12.03666 4495 ft 157 kts 42°
2026-05-06 17:17 45.26608 12.04646 4343 ft 143 kts 41°
2026-05-06 17:18 45.27341 12.05577 4248 ft 143 kts 42°
2026-05-06 17:18 45.28090 12.06529 4169 ft 145 kts 42°
2026-05-06 17:18 45.28840 12.07482 4106 ft 146 kts 41°
2026-05-06 17:18 45.29596 12.08444 4049 ft 146 kts 42°
2026-05-06 17:19 45.30350 12.09402 3976 ft 145 kts 42°
2026-05-06 17:19 45.31101 12.10358 3922 ft 145 kts 41°
2026-05-06 17:19 45.31850 12.11312 3865 ft 145 kts 42°
2026-05-06 17:19 45.32601 12.12268 3797 ft 145 kts 42°
2026-05-06 17:20 45.33351 12.13223 3727 ft 145 kts 42°
2026-05-06 17:20 45.34105 12.14184 3602 ft 145 kts 42°
2026-05-06 17:20 45.34853 12.15139 3478 ft 145 kts 43°
2026-05-06 17:20 45.35599 12.16089 3368 ft 143 kts 42°
2026-05-06 17:21 45.36339 12.17034 3306 ft 143 kts 43°
2026-05-06 17:21 45.37087 12.17988 3190 ft 145 kts 43°
2026-05-06 17:21 45.37836 12.18944 3043 ft 143 kts 43°
2026-05-06 17:21 45.38577 12.19891 2858 ft 143 kts 44°
2026-05-06 17:22 45.39309 12.20826 2678 ft 142 kts 44°
2026-05-06 17:22 45.40047 12.21770 2488 ft 143 kts 44°
2026-05-06 17:22 45.40787 12.22716 2297 ft 143 kts 45°
2026-05-06 17:22 45.41516 12.23648 2111 ft 140 kts 45°
2026-05-06 17:23 45.42232 12.24564 1915 ft 137 kts 45°
2026-05-06 17:23 45.42943 12.25474 1742 ft 137 kts 44°
2026-05-06 17:23 45.43652 12.26382 1569 ft 137 kts 45°
2026-05-06 17:23 45.44353 12.27280 1384 ft 137 kts 45°
2026-05-06 17:24 45.45053 12.28178 1197 ft 135 kts 43°
2026-05-06 17:24 45.45742 12.29060 1026 ft 133 kts 44°
2026-05-06 17:24 45.46424 12.29935 839 ft 132 kts 43°
2026-05-06 17:24 45.47097 12.30799 670 ft 130 kts 44°
2026-05-06 17:25 45.47753 12.31640 493 ft 127 kts 43°
2026-05-06 17:25 45.48403 12.32474 326 ft 126 kts 43°
2026-05-06 17:25 45.49050 12.33306 150 ft 125 kts 44°
2026-05-06 17:25 45.49687 12.34127 13 ft 116 kts 43°
2026-05-06 17:26 45.50178 12.34757 14 ft 70 kts 42°
2026-05-06 17:26 45.50445 12.35046 10 ft 37 kts
2026-05-06 17:26 45.50596 12.35051 12 ft 11 kts 312°
2026-05-06 17:26 45.50610 12.34915 13 ft 18 kts 270°